カタログに戻る

OPS 4682 DEB

運用中PO
NORAD 55117·DEBRIS·🇺🇸 United States

打ち上げ Apr 3, 1965 から Vandenberg Space Force Base

Loading…

次のパス (今後24時間)

TLE

最新Source: Space-Track

元期: Sep 13, 2026, 01:52 UTC

1 55117U 65027HG  26256.07825066  .00000223  00000-0  78333-3 0  9998
2 55117  90.2510  11.1493 0029165  10.7913 349.3825 12.93726547520288

AllMySatでOPS 4682 DEBをリアルタイム追跡

Download on the App Store